Onweer radar Meer informatie blitzortung!


Regen radar Meer informatie rain snow radar


Bezoek onze andere website:

Template documentation
and downloads

And another site



15 daagse weersverwachting Aveiro (PT)

  • Overzicht
  • Per uur
  • 15 dagen
  • Extra
  • Vergelijk
  • Kaarten
  • Dagkaart
  • Meer »
  • Info
  • Statistieken
  • Directe link
    Temp 6h Neerslag Wind  
 07:52     17:08    Daglengte: 9:16 Vandaag
18:00
14°
0.3 mm
5
 07:52     17:08    Daglengte: 9:16 Morgen
00:00
14°
0.9 mm
6
06:00
13°
1.6 mm
7
12:00
13°
14.0 mm
4
18:00
12°
39.5 mm
2
 07:53     17:08    Daglengte: 9:15 Maandag 16 Dec
00:00
12°
40.6 mm
3
06:00
11°
42.7 mm
3
12:00
11°
46.0 mm
4
18:00
10°
46.5 mm
6
 07:54     17:09    Daglengte: 9:15 Dinsdag 17 Dec
00:00
10°
47.7 mm
5
06:00
 
5
12:00
11°
 
4
Locatie info
Region: Aveiro
Latitude: 40.6412°N
Longitude: -8.6539°E
19 masl
Postcode: 3810-085
Temp/Neerslag /Baro Onweer/Dauwpunt
    Temp Baro 1h Neerslag Dauwpunt Wind UV Bewolking  
 07:52     17:08    Daglengte: 9:16 Vandaag
15:00
15°
1018.1 hPa
46%
11.6°
6
Windvlaag: 4.1 m/s
54%
16:00
15°
1017.9 hPa 0.3 mm
72%
11.7°
6
Windvlaag: 4 m/s
58%
17:00
14°
1017.5 hPa
76%
11.7°
5
Windvlaag: 4.1 m/s
74%
18:00
14°
1017.4 hPa
76%
11.7°
5
Windvlaag: 4.1 m/s
64%
19:00
14°
1017.3 hPa
38%
11.7°
5
Windvlaag: 3.9 m/s
59%
20:00
14°
1017.2 hPa 0.1 mm
81%
11.7°
5
Windvlaag: 4.3 m/s
40%
21:00
14°
1017.0 hPa
78%
11.5°
5
Windvlaag: 4.5 m/s
45%
22:00
13°
1016.6 hPa 0.2 mm
82%
11.5°
6
Windvlaag: 4.8 m/s
64%
23:00
14°
1016.0 hPa 0.2 mm
82%
11.6°
6
Windvlaag: 4.8 m/s
62%
 07:52     17:08    Daglengte: 9:16 Morgen
00:00
14°
1015.5 hPa 0.3 mm
77%
11.5°
6
Windvlaag: 4.8 m/s
80%
01:00
14°
1014.9 hPa 0.3 mm
75%
11.9°
6
Windvlaag: 4.9 m/s
68%
02:00
13°
1014.2 hPa 0.3 mm
75%
12.0°
6
Windvlaag: 5 m/s
55%
03:00
13°
1013.5 hPa 0.2 mm
81%
11.9°
6
Windvlaag: 5 m/s
62%
04:00
13°
1012.7 hPa
79%
11.7°
6
Windvlaag: 5 m/s
76%
05:00
13°
1012.0 hPa 0.4 mm
81%
12.1°
6
Windvlaag: 5 m/s
74%
06:00
13°
1011.7 hPa 0.5 mm
81%
11.9°
7
Windvlaag: 5 m/s
74%
07:00
13°
1011.4 hPa 0.5 mm
82%
12.1°
7
Windvlaag: 5.3 m/s
75%
08:00
13°
1011.3 hPa 0.9 mm
82%
11.9°
7
Windvlaag: 5.6 m/s
78%
09:00
13°
1011.0 hPa 2.2 mm
82%
12.0°
8
Windvlaag: 5.7 m/s
89%
10:00
14°
1011.1 hPa 3.8 mm
82%
12.0°
6
Windvlaag: 5.7 m/s
91%
11:00
13°
1010.9 hPa 3.6 mm
82%
12.0°
5
Windvlaag: 5.9 m/s
90%
12:00
13°
1010.1 hPa 2.9 mm
82%
11.9°
4
Windvlaag: 6 m/s
91%
13:00
13°
1009.3 hPa 4.1 mm
82%
12.0°
4
Windvlaag: 5.7 m/s
91%
14:00
13°
1008.4 hPa 5.6 mm
82%
12.1°
5
Windvlaag: 5.2 m/s
91%
15:00
13°
1007.8 hPa 7.7 mm
82%
11.2°
3
Windvlaag: 4.3 m/s
91%
16:00
12°
1007.3 hPa 7.2 mm
82%
10.6°
3
Windvlaag: -1.5 m/s
91%
17:00
12°
1006.7 hPa 8.0 mm
82%
10.4°
2
Windvlaag: 0.2 m/s
91%
18:00
12°
1006.2 hPa 6.9 mm
82%
10.2°
2
Windvlaag: 0.3 m/s
91%
19:00
12°
1005.7 hPa 7.0 mm
82%
10.5°
3
Windvlaag: 2.4 m/s
91%
20:00
12°
1005.0 hPa 7.0 mm
82%
10.9°
3
Windvlaag: 2.8 m/s
91%
21:00
12°
1004.5 hPa 7.4 mm
82%
10.8°
2
Windvlaag: 2.3 m/s
91%
22:00
12°
1003.7 hPa 6.7 mm
82%
10.8°
3
Windvlaag: 2.5 m/s
91%
23:00
12°
1002.9 hPa 6.1 mm
82%
10.7°
4
Windvlaag: 2.3 m/s
91%
 07:53     17:08    Daglengte: 9:15 Maandag 16 Dec
00:00
12°
1002.0 hPa 6.3 mm
82%
10.4°
3
Windvlaag: 1.9 m/s
91%
01:00
12°
1001.1 hPa 6.6 mm
82%
10.1°
3
Windvlaag: 1.6 m/s
91%
02:00
12°
1000.3 hPa 6.9 mm
82%
10.0°
3
Windvlaag: 1 m/s
91%
03:00
11°
999.7 hPa 7.3 mm
82%
9.9°
2
Windvlaag: 0.9 m/s
91%
04:00
11°
998.7 hPa 7.4 mm
82%
10.0°
2
Windvlaag: 1.8 m/s
91%
05:00
11°
998.1 hPa 7.0 mm
82%
9.7°
2
Windvlaag: 1.5 m/s
91%
06:00
11°
997.7 hPa 7.5 mm
82%
9.7°
3
Windvlaag: 1.9 m/s
91%
07:00
11°
997.2 hPa 7.0 mm
82%
9.5°
3
Windvlaag: 2.6 m/s
91%
08:00
11°
996.9 hPa 7.2 mm
82%
8.9°
3
Windvlaag: 2.3 m/s
91%
09:00
10°
996.3 hPa 7.4 mm
100%
9.0°
3
Windvlaag: 2.3 m/s
100%
10:00
10°
996.1 hPa 7.1 mm
100%
8.8°
2
Windvlaag: 2.4 m/s
100%
11:00
11°
995.4 hPa 7.1 mm
100%
8.8°
3
Windvlaag: 2.4 m/s
100%
12:00
11°
994.8 hPa 10.2 mm
100%
8.9°
4
Windvlaag: 2.8 m/s
100%
13:00
11°
993.8 hPa 7.1 mm
100%
8.5°
5
Windvlaag: 2.4 m/s
100%
14:00
11°
993.2 hPa 7.2 mm
100%
8.2°
5
Windvlaag: 2 m/s
95%
15:00
11°
993.5 hPa 10.2 mm
98%
8.2°
5
Windvlaag: 1.5 m/s
97%
16:00
11°
994.0 hPa 7.2 mm
100%
8.2°
5
Windvlaag: 1.5 m/s
98%
17:00
10°
994.7 hPa 7.4 mm
100%
7.5°
5
Windvlaag: 1.2 m/s
100%
18:00
10°
995.4 hPa 7.5 mm
100%
7.1°
6
Windvlaag: 0.8 m/s
99%
19:00
10°
996.1 hPa 7.7 mm
100%
6.8°
6
Windvlaag: 0.4 m/s
100%
20:00
10°
996.9 hPa
100%
6.7°
6
Windvlaag: -1.5 m/s
98%
21:00
10°
Voelt als: 7.0°
997.8 hPa 10.0 mm
42%
6.6°
6
Windvlaag: -2.2 m/s
97%
22:00
10°
Voelt als: 7.1°
998.6 hPa 9.9 mm
35%
6.6°
6
Windvlaag: -2.2 m/s
88%
23:00
10°
Voelt als: 7.2°
999.1 hPa 10.1 mm
36%
6.5°
5
Windvlaag: -2.4 m/s
95%
 07:54     17:09    Daglengte: 9:15 Dinsdag 17 Dec
00:00
10°
Voelt als: 7.2°
999.6 hPa 10.1 mm
33%
6.2°
5
Windvlaag: -2 m/s
87%
01:00
10°
Voelt als: 7.2°
1000.1 hPa
31%
5.9°
5
Windvlaag: -1.3 m/s
79%
02:00
10°
Voelt als: 6.9°
1000.7 hPa
32%
5.5°
5
Windvlaag: -2.2 m/s
68%
03:00
Voelt als: 6.7°
1001.5 hPa
23%
5.4°
5
Windvlaag: -2.9 m/s
56%
04:00
Voelt als: 6.3°
1002.0 hPa
28%
5.0°
5
Windvlaag: -3.5 m/s
52%
05:00
Voelt als: 6.1°
1002.8 hPa
21%
5.3°
5
Windvlaag: -3.4 m/s
27%
06:00
Voelt als: 5.6°
1003.8 hPa
21%
5.3°
5
Windvlaag: -4 m/s
20%
07:00
Voelt als: 5.9°
1005.1 hPa
21%
4.9°
4
Windvlaag: 11.2 m/s
13%
08:00
Voelt als: 6.1°
1006.0 hPa
21%
4.7°
4
Windvlaag: 11.1 m/s
16%
09:00
Voelt als: 6.9°
1006.8 hPa
21%
4.9°
4
Windvlaag: 10.9 m/s
19%
10:00
10°
Voelt als: 7.6°
1007.7 hPa
21%
5.1°
4
Windvlaag: 11.3 m/s
22%
11:00
10°
1008.5 hPa
21%
5.3°
4
Windvlaag: 11.5 m/s
25%
12:00
11°
1009.1 hPa
21%
5.3°
4
Windvlaag: 1.5 m/s
28%
13:00
10°
1009.5 hPa 47.8 mm
100%
5.0°
4
Windvlaag: 9.3 m/s
50%
14:00
10°
Voelt als: 8.2°
1010.0 hPa 47.8 mm
100%
4.9°
3
Windvlaag: 8.3 m/s
52%
Temp/Neerslag /Baro Onweer/Dauwpunt
    Temp Baro Neerslag Dauwpunt Wind Bewolking  
 07:52     17:08    Daglengte: 9:16 Vandaag
15:00
15°
1018.1 hPa   11.6°
6
54%
18:00
14°
1017.4 hPa 0.3 mm 11.7°
5
64%
21:00
14°
1017.0 hPa 0.1 mm 11.5°
5
45%
 07:52     17:08    Daglengte: 9:16 Morgen
00:00
14°
1015.5 hPa 0.8 mm 11.5°
6
80%
03:00
13°
1013.5 hPa 0.8 mm 11.9°
6
62%
06:00
13°
1011.7 hPa 0.8 mm 11.9°
7
74%
09:00
13°
1011.0 hPa 3.6 mm 12.0°
8
89%
12:00
13°
1010.1 hPa 10.4 mm 11.9°
4
91%
15:00
13°
1007.8 hPa 17.4 mm 11.2°
3
91%
18:00
12°
1006.2 hPa 22.1 mm 10.2°
2
91%
21:00
12°
1004.5 hPa 21.4 mm 10.8°
2
91%
 07:53     17:08    Daglengte: 9:15 Maandag 16 Dec
00:00
12°
1002.0 hPa 19.1 mm 10.4°
3
91%
03:00
11°
999.7 hPa 20.8 mm 9.9°
2
91%
06:00
11°
997.7 hPa 21.9 mm 9.7°
3
91%
09:00
10°
996.3 hPa 21.6 mm 9.0°
3
100%
12:00
11°
994.8 hPa 24.4 mm 8.9°
4
100%
15:00
11°
993.5 hPa 24.5 mm 8.2°
5
97%
18:00
10°
995.4 hPa 22.0 mm 7.1°
6
99%
21:00
10°
Voelt als: 7.0°
997.8 hPa 17.6 mm 6.6°
6
97%
 07:54     17:09    Daglengte: 9:15 Dinsdag 17 Dec
00:00
10°
Voelt als: 7.2°
999.6 hPa 30.1 mm 6.2°
5
87%
03:00
Voelt als: 6.7°
1001.5 hPa   5.4°
5
56%
06:00
Voelt als: 5.6°
1003.8 hPa   5.3°
5
20%
09:00
Voelt als: 6.9°
1006.8 hPa   4.9°
4
19%
12:00
11°
1009.1 hPa   5.3°
4
28%
15:00
10°
Voelt als: 7.9°
1010.6 hPa 143.4 mm 4.8°
3
54%
18:00
Voelt als: 6.9°
1012.5 hPa 143.4 mm 4.8°
2
75%
21:00
Voelt als: 4.9°
1013.9 hPa 51.1 mm 4.3°
3
82%
 07:54     17:09    Daglengte: 9:15 Woensdag 18 Dec
00:00
Voelt als: 3.8°
1014.4 hPa 51.1 mm 4.3°
4
90%
03:00
Voelt als: 4.7°
1013.1 hPa 51.1 mm 4.4°
5
91%
06:00
Voelt als: 5.9°
1011.8 hPa 51.1 mm 4.4°
6
92%
09:00
10°
1010.8 hPa 51.7 mm 6.0°
8
92%
12:00
12°
1009.9 hPa 51.9 mm 7.6°
9
92%
15:00
13°
1007.4 hPa 56.0 mm 10.1°
9
91%
18:00
14°
1005.2 hPa 74.1 mm 12.4°
9
91%
21:00
14°
1005.0 hPa 77.6 mm 12.2°
8
88%
 07:55     17:09    Daglengte: 9:14 Donderdag 19 Dec
00:00
14°
1004.7 hPa 80.8 mm 12.1°
8
85%
03:00
13°
1003.4 hPa 82.9 mm 11.4°
8
88%
06:00
13°
1002.0 hPa 85.9 mm 10.7°
8
92%
09:00
12°
1001.3 hPa 88.8 mm 10.0°
8
77%
12:00
13°
1000.5 hPa 90.6 mm 9.4°
7
62%
15:00
12°
1002.1 hPa 91.4 mm 9.1°
6
58%
18:00
11°
1003.3 hPa 102.1 mm 8.9°
6
53%
21:00
12°
1003.6 hPa 108.7 mm 9.9°
5
72%
 07:55     17:10    Daglengte: 9:15 Vrijdag 20 Dec
00:00
12°
1004.3 hPa 110.6 mm 10.5°
5
92%
03:00
12°
1003.6 hPa 112.3 mm 10.8°
5
92%
06:00
13°
1003.0 hPa 113.0 mm 11.1°
5
92%
09:00
14°
1001.6 hPa 113.8 mm 12.3°
7
92%
12:00
15°
1000.0 hPa 114.4 mm 13.6°
8
92%
15:00
15°
1002.4 hPa 114.6 mm 12.8°
8
89%
18:00
15°
1004.8 hPa 114.8 mm 11.8°
8
85%
21:00
14°
1007.8 hPa 116.1 mm 11.6°
6
79%
 07:56     17:10    Daglengte: 9:14 Zaterdag 21 Dec
00:00
13°
1010.6 hPa 118.1 mm 11.5°
4
73%
03:00
13°
1012.2 hPa 119.0 mm 11.7°
3
67%
06:00
12°
1013.7 hPa 119.9 mm 11.6°
3
60%
09:00
13°
1015.5 hPa 120.0 mm 11.7°
2
69%
12:00
14°
1017.2 hPa 240.2 mm 11.8°
2
77%
18:00
13°
1018.5 hPa 240.5 mm 12.0°
2
89%
 07:56     17:11    Daglengte: 9:15 Zondag 22 Dec
00:00
11°
1020.8 hPa 241.1 mm 10.1°
3
82%
06:00
14°
1022.0 hPa 241.7 mm 13.6°
3
92%
12:00
16°
1025.1 hPa 242.4 mm 14.5°
4
92%
18:00
14°
1026.1 hPa 242.8 mm 12.5°
2
92%
 07:57     17:11    Daglengte: 9:14 Maandag 23 Dec
00:00
13°
1027.5 hPa 242.8 mm 12.1°
3
87%
06:00
11°
1026.7 hPa 242.8 mm 9.8°
3
91%
12:00
15°
1026.4 hPa 242.8 mm 11.4°
4
72%
18:00
13°
1022.8 hPa 242.8 mm 11.2°
3
74%
 07:57     17:12    Daglengte: 9:15 Dinsdag 24 Dec
00:00
15°
1008.4 hPa 242.8 mm 11.0°
7
1%
06:00
15°
1004.9 hPa 244.8 mm 12.0°
9
1%
12:00
13°
1016.9 hPa 1.4 mm 9.1°
3
56%
18:00
12°
1015.8 hPa 1.3 mm 8.7°
1
55%
 07:58     17:12    Daglengte: 9:14 Woensdag 25 Dec
00:00
11°
1016.7 hPa 1.4 mm 7.8°
1
57%
06:00
11°
1016.3 hPa 0.5 mm 7.4°
2
54%
12:00
13°
1017.4 hPa 2.0 mm 9.4°
2
64%
18:00
12°
1016.7 hPa 1.5 mm 9.1°
2
56%
 07:58     17:13    Daglengte: 9:15 Donderdag 26 Dec
00:00
11°
1017.5 hPa 2.0 mm 8.2°
2
54%
06:00
10°
1017.1 hPa 1.4 mm 8.0°
2
58%
12:00
13°
1018.6 hPa 0.8 mm 9.6°
2
52%
18:00
12°
1017.7 hPa 0.7 mm 9.2°
1
54%
 07:58     17:14    Daglengte: 9:16 Vrijdag 27 Dec
00:00
11°
1018.5 hPa 0.9 mm 8.5°
2
54%
06:00
10°
1017.6 hPa 1.1 mm 8.2°
2
50%
12:00
13°
1018.0 hPa 0.9 mm 9.9°
2
58%
18:00
12°
1016.6 hPa 0.7 mm 9.2°
2
57%
 07:59     17:14    Daglengte: 9:15 Zaterdag 28 Dec
00:00
11°
1017.2 hPa 2.0 mm 8.5°
2
50%
06:00
10°
1016.7 hPa 0.9 mm 7.5°
2
49%
12:00
13°
1017.8 hPa 0.3 mm 9.0°
2
52%
18:00
11°
1017.2 hPa 1.5 mm 8.5°
2
49%
 07:59     17:15    Daglengte: 9:16 Zondag 29 Dec
00:00
11°
1018.1 hPa 1.5 mm 8.2°
2
51%
06:00
10°
Voelt als: 9.2°
1017.6 hPa 0.8 mm 7.5°
2
50%
12:00
13°
1019.1 hPa 1.6 mm 9.1°
2
50%
  CAPE Lifted Index Hail Supercell Tornado SRH 3km CL BTM PRES CL TOP PRES Swiss DWD icon SMHI TS
 07:52     17:08    Daglengte: 9:16 Vandaag
15:00 46 J/kg 3.4 K 0 % 0 % 0 % 0 m²/s² 0 0 9.49 3
16:00 51 J/kg 3.0 K 0 % 0 % 0 % 0 m²/s² 0 0 8.31 3
17:00 44 J/kg 3.1 K 0 % 0 % 0 % 0 m²/s² 0 0 7.54 80
18:00 55 J/kg 2.8 K 0 % 0 % 0 % 0 m²/s² 0 0 7.33 2
19:00 73 J/kg 2.8 K 0 % 0 % 0 % 0 m²/s² 0 0 6.79 3
20:00 73 J/kg 2.8 K 0 % 0 % 0 % 0 m²/s² 0 0 6.04 80
21:00 61 J/kg 2.9 K 0 % 0 % 0 % 0 m²/s² 0 0 7.19 3
22:00 60 J/kg 2.9 K 0 % 0 % 0 % 0 m²/s² 0 0 7.76 3
23:00 79 J/kg 2.9 K 0 % 0 % 0 % 0 m²/s² 0 0 7.76 80
 07:52     17:08    Daglengte: 9:16 Morgen
00:00 67 J/kg 3.2 K 0 % 0 % 0 % 0 m²/s² 0 0 9.05 3
01:00 46 J/kg 3.1 K 0 % 0 % 0 % 0 m²/s² 0 0 9.28 3
02:00 14 J/kg 2.9 K 0 % 0 % 0 % 0 m²/s² 0 0 6.95 3
03:00 10 J/kg 2.8 K 0 % 0 % 0 % 0 m²/s² 0 0 4.51 3
04:00 31 J/kg 2.6 K 0 % 0 % 0 % 0 m²/s² 0 0 3.38 3
05:00 41 J/kg 2.1 K 0 % 0 % 0 % 0 m²/s² 0 0 2.64 3
06:00 49 J/kg 1.8 K 0 % 0 % 0 % 0 m²/s² 0 0 2.13 3
07:00 62 J/kg 1.5 K 0 % 0 % 0 % 0 m²/s² 0 0 1.8 3
08:00 38 J/kg 1.3 K 0 % 0 % 0 % 0 m²/s² 0 0 1.42 3
09:00 83 J/kg 1.1 K 0 % 0 % 0 % 0 m²/s² 0 0 1.28 80
10:00 82 J/kg 1.5 K 0 % 0 % 0 % 0 m²/s² 0 0 1.68 80
11:00 84 J/kg 1.3 K 0 % 0 % 0 % 0 m²/s² 0 0 1.69 80
12:00 93 J/kg 1.7 K 0 % 0 % 0 % 0 m²/s² 0 0 1.94 61
13:00 82 J/kg 1.9 K 0 % 0 % 0 % 0 m²/s² 0 0 2.05 63
14:00 96 J/kg 1.8 K 0 % 0 % 0 % 0 m²/s² 0 0 1.92 63
15:00 160 J/kg 1.5 K 0 % 0 % 0 % 0 m²/s² 0 0 1.65 63
16:00 94 J/kg 2.4 K 0 % 0 % 0 % 0 m²/s² 0 0 2.55 63
17:00 56 J/kg 3.0 K 0 % 0 % 0 % 0 m²/s² 0 0 3.12 63
18:00 26 J/kg 3.1 K 0 % 0 % 0 % 0 m²/s² 0 0 3.22 63
19:00 14 J/kg 3.5 K 0 % 0 % 0 % 0 m²/s² 0 0 3.65 63
20:00 71 J/kg 3.1 K 0 % 0 % 0 % 0 m²/s² 0 0 3.34 63
21:00 79 J/kg 3.0 K 0 % 0 % 0 % 0 m²/s² 0 0 3.57 63
22:00 37 J/kg 4.4 K 0 % 0 % 0 % 0 m²/s² 0 0 5.03 61
23:00 47 J/kg 4.5 K 0 % 0 % 0 % 0 m²/s² 0 0 5.16 61
 07:53     17:08    Daglengte: 9:15 Maandag 16 Dec
00:00 41 J/kg 4.6 K 0 % 0 % 0 % 0 m²/s² 0 0 5.05 80
01:00 9 J/kg 4.9 K 0 % 0 % 0 % 0 m²/s² 0 0 5.38 80
02:00 7 J/kg 4.8 K 0 % 0 % 0 % 0 m²/s² 0 0 5.07 61
03:00 8 J/kg 4.6 K 0 % 0 % 0 % 0 m²/s² 0 0 4.84 63
04:00 1 J/kg 4.9 K 0 % 0 % 0 % 0 m²/s² 0 0 5.26 63
05:00 10 J/kg 4.8 K 0 % 0 % 0 % 0 m²/s² 0 0 5.07 61
06:00 29 J/kg 4.7 K 0 % 0 % 0 % 0 m²/s² 0 0 5.06 61
07:00 14 J/kg 5.1 K 0 % 0 % 0 % 0 m²/s² 0 0 5.52 61
08:00 5 J/kg 5.5 K 0 % 0 % 0 % 0 m²/s² 0 0 5.83 61
09:00 10 J/kg 5.1 K 0 % 0 % 0 % 0 m²/s² 0 0 5.43 61
10:00 19 J/kg 4.4 K 0 % 0 % 0 % 0 m²/s² 0 0 4.73 61
11:00 46 J/kg 3.0 K 0 % 0 % 0 % 0 m²/s² 0 0 3.33 61
12:00 49 J/kg 2.8 K 0 % 0 % 0 % 0 m²/s² 0 0 3.16 61
13:00 3 J/kg 4.2 K 0 % 0 % 0 % 0 m²/s² 0 0 4.47 61
14:00 2 J/kg 3.5 K 0 % 0 % 0 % 0 m²/s² 0 0 3.86 61
15:00 23 J/kg 2.7 K 0 % 0 % 0 % 0 m²/s² 0 0 3.15 3
16:00 44 J/kg 1.3 K 0 % 0 % 0 % 0 m²/s² 0 0 1.84 61
17:00 84 J/kg 1.0 K 0 % 0 % 0 % 0 m²/s² 0 0 1.39 61
18:00 76 J/kg 1.3 K 0 % 0 % 0 % 0 m²/s² 0 0 1.63 61
19:00 63 J/kg 2.1 K 0 % 0 % 0 % 0 m²/s² 0 0 2.49 61
20:00 130 J/kg 1.4 K 0 % 0 % 0 % 0 m²/s² 0 0 1.73 3
21:00 30 J/kg 2.6 K 0 % 0 % 0 % 0 m²/s² 0 0 2.96 3
22:00 0 J/kg 3.0 K 0 % 0 % 0 % 0 m²/s² 0 0 3.36 1
23:00 6 J/kg 2.5 K 0 % 0 % 0 % 0 m²/s² 0 0 2.8 2
 07:54     17:09    Daglengte: 9:15 Dinsdag 17 Dec
00:00 5 J/kg 1.9 K 0 % 0 % 0 % 0 m²/s² 0 0 2.32 2
01:00 3 J/kg 1.8 K 0 % 0 % 0 % 0 m²/s² 0 0 2.52 2
02:00 0 J/kg 1.7 K 0 % 0 % 0 % 0 m²/s² 0 0 3.08 3
03:00 3 J/kg 1.5 K 0 % 0 % 0 % 0 m²/s² 0 0 2.82 1
04:00 0 J/kg 1.5 K 0 % 0 % 0 % 0 m²/s² 0 0 3.51 1
05:00 9 J/kg 1.6 K 0 % 0 % 0 % 0 m²/s² 0 0 3.79 1
06:00 0 J/kg 2.0 K 0 % 0 % 0 % 0 m²/s² 0 0 4.61 1
07:00 0 J/kg 2.4 K 0 % 0 % 0 % 0 m²/s² 0 0 5.16 0
08:00 9 J/kg 2.2 K 0 % 0 % 0 % 0 m²/s² 0 0 4.33 0
09:00 16 J/kg 2.4 K 0 % 0 % 0 % 0 m²/s² 0 0 4.05 0
10:00 14 J/kg 3.6 K 0 % 0 % 0 % 0 m²/s² 0 0 6.51 0
11:00 48 J/kg 5.5 K 0 % 0 % 0 % 0 m²/s² 0 0 9.07 0
12:00 26 J/kg 7.8 K 0 % 0 % 0 % 0 m²/s² 0 0 11.28 1
13:00 5 J/kg 9.9 K 0 % 0 % 0 % 0 m²/s² 0 0 13.11
14:00 0 J/kg 11.6 K 0 % 0 % 0 % 0 m²/s² 0 0 15.29
Temp Baro Wind Neerslag
  EWN Forecast EWN WRFDA DWD ICON FMI HIRLAM MET Norway GFS
 07:52     17:08    Daglengte: 9:16 Vandaag
15:00 15.0° 1018.1 hPa 6.0 m/s 0.0 mm 16.1° 1016.0 hPa 6.9 m/s 0.0 mm 14.9° 1018.2 hPa 4.7 m/s -1.1 mm 16.0° 1018.0 hPa 6.2 m/s 0.0 mm 14.8° 1018.2 hPa 6.7 m/s 14.7° 1016.9 hPa 5.7 m/s
18:00 13.8° 1017.4 hPa 4.6 m/s 0.3 mm 14.7° 1015.6 hPa 5.8 m/s 0.1 mm 13.5° 1017.4 hPa 3.2 m/s 0.4 mm 14.9° 1016.7 hPa 6.3 m/s 0.0 mm 13.6° 1017.6 hPa 4.4 m/s 14.0° 1016.5 hPa 5.6 m/s
21:00 13.5° 1017.0 hPa 5.3 m/s 0.1 mm 14.8° 1015.8 hPa 6.5 m/s 0.3 mm 12.9° 1017.2 hPa 3.0 m/s 0.3 mm 15.0° 1016.2 hPa 7.1 m/s 0.0 mm 13.3° 1017.1 hPa 5.3 m/s 14.0° 1016.8 hPa 6.2 m/s
 07:52     17:08    Daglengte: 9:16 Morgen
00:00 13.6° 1015.5 hPa 6.0 m/s 0.8 mm 14.6° 1014.2 hPa 6.5 m/s 1.9 mm 12.8° 1015.7 hPa 3.9 m/s 0.4 mm 14.7° 1015.0 hPa 7.2 m/s 0.0 mm 13.5° 1015.6 hPa 6.1 m/s 13.9° 1014.9 hPa 6.4 m/s
03:00 13.3° 1013.5 hPa 6.0 m/s 0.8 mm 13.0° 1012.7 hPa 5.9 m/s 2.1 mm 12.9° 1013.9 hPa 4.6 m/s 0.1 mm 15.1° 1012.6 hPa 7.7 m/s 0.0 mm 13.3° 1013.5 hPa 6.0 m/s 13.2° 1013.2 hPa 6.0 m/s
06:00 13.4° 1011.7 hPa 6.9 m/s 0.8 mm 13.8° 1010.5 hPa 6.8 m/s 3.1 mm 12.5° 1011.7 hPa 5.0 m/s 0.3 mm 14.9° 1011.0 hPa 8.0 m/s 0.0 mm 13.3° 1011.8 hPa 7.3 m/s 13.5° 1011.5 hPa 6.8 m/s
09:00 13.5° 1011.0 hPa 7.5 m/s 3.6 mm 14.1° 1009.9 hPa 9.4 m/s 9.9 mm 12.9° 1011.5 hPa 5.5 m/s 0.5 mm 14.7° 1010.3 hPa 7.9 m/s 0.0 mm 13.5° 1011.0 hPa 7.7 m/s 13.4° 1011.0 hPa 8.8 m/s
12:00 13.4° 1010.1 hPa 4.3 m/s 10.4 mm 14.9° 1008.3 hPa 9.4 m/s 23.9 mm 13.6° 1009.6 hPa 5.7 m/s 2.6 mm 13.9° 1009.9 hPa 1.5 m/s 0.0 mm 12.6° 1010.5 hPa 2.5 m/s 13.6° 1009.6 hPa 6.9 m/s
15:00 12.7° 1007.8 hPa 3.4 m/s 17.4 mm 13.5° 1006.0 hPa 6.1 m/s 51.4 mm 13.3° 1007.3 hPa 4.6 m/s 10.7 mm 13.7° 1007.6 hPa 2.7 m/s 0.0 mm 12.2° 1008.0 hPa 3.2 m/s 13.0° 1007.0 hPa 6.8 m/s
18:00 11.9° 1006.2 hPa 2.3 m/s 22.1 mm 12.2° 1004.6 hPa 4.2 m/s 82.7 mm 12.5° 1005.5 hPa 2.6 m/s 13.9 mm 13.2° 1004.7 hPa 3.1 m/s 0.0 mm 11.4° 1007.2 hPa 1.1 m/s 12.0° 1005.7 hPa 3.6 m/s
21:00 12.1° 1004.5 hPa 2.4 m/s 21.4 mm 11.8° 1003.7 hPa 1.8 m/s 98.6 mm 12.2° 1004.7 hPa 1.4 m/s 11.8 mm 13.9° 1002.3 hPa 6.0 m/s 0.0 mm 10.7° 1004.7 hPa 1.8 m/s 11.3° 1004.7 hPa 2.8 m/s
 07:53     17:08    Daglengte: 9:15 Maandag 16 Dec
00:00 12.0° 1002.0 hPa 3.2 m/s 19.1 mm 11.3° 1001.9 hPa 1.7 m/s 108.1 mm 12.0° 1002.4 hPa 1.8 m/s 4.1 mm 14.2° 998.8 hPa 8.3 m/s 0.0 mm 10.9° 1002.1 hPa 2.8 m/s 11.4° 1002.8 hPa 1.4 m/s
03:00 11.5° 999.7 hPa 1.9 m/s 20.8 mm 10.4° 999.4 hPa 2.2 m/s 112.3 mm 11.5° 1000.4 hPa 0.6 m/s 6.3 mm 13.5° 998.8 hPa 3.7 m/s 0.0 mm 10.4° 999.5 hPa 1.7 m/s 10.2° 1000.5 hPa 1.0 m/s
06:00 11.0° 997.7 hPa 2.5 m/s 21.9 mm 9.7° 996.0 hPa 2.5 m/s 120.4 mm 11.1° 998.2 hPa 2.3 m/s 6.5 mm 12.4° 997.7 hPa 5.0 m/s 0.0 mm 10.2° 997.1 hPa 1.3 m/s 9.7° 997.2 hPa 2.2 m/s
09:00 10.2° 996.3 hPa 2.8 m/s 21.6 mm 9.4° 995.0 hPa 3.9 m/s 132.4 mm 10.2° 998.5 hPa 3.1 m/s 5.0 mm 10.1° 995.7 hPa 1.1 m/s 9.9° 996.1 hPa 3.7 m/s
12:00 10.8° 994.8 hPa 4.4 m/s 24.4 mm 9.9° 994.4 hPa 6.8 m/s 137.9 mm 11.0° 997.0 hPa 3.4 m/s 1.0 mm 10.8° 993.6 hPa 4.5 m/s 9.7° 995.3 hPa 5.8 m/s
15:00 10.8° 993.5 hPa 5.5 m/s 24.5 mm 10.9° 993.0 hPa 6.2 m/s 141.8 mm 11.3° 995.6 hPa 4.2 m/s 0.5 mm 10.1° 993.1 hPa 6.1 m/s 9.6° 994.7 hPa 6.9 m/s
18:00 10.2° 995.4 hPa 5.8 m/s 22.0 mm 10.3° 994.8 hPa 9.5 m/s 142.0 mm 10.2° 997.2 hPa 5.2 m/s 1.0 mm 9.9° 995.4 hPa 6.3 m/s 9.8° 996.7 hPa 6.9 m/s
21:00 9.9° 997.8 hPa 6.3 m/s 17.6 mm 9.9° 997.5 hPa 7.1 m/s 143.4 mm 9.8° 999.5 hPa 4.3 m/s 0.4 mm 9.9° 998.0 hPa 6.6 m/s 9.7° 999.1 hPa 6.6 m/s
 07:54     17:09    Daglengte: 9:15 Dinsdag 17 Dec
00:00 9.6° 999.6 hPa 4.8 m/s 30.1 mm 10.2° 998.7 hPa 5.7 m/s 143.4 mm 9.0° 1001.2 hPa 4.3 m/s 0.0 mm 9.6° 1000.0 hPa 5.0 m/s 9.4° 1000.2 hPa 7.2 m/s
03:00 9.4° 1001.5 hPa 5.2 m/s 0.0 mm 9.5° 999.7 hPa 6.4 m/s 143.4 mm 8.8° 1003.6 hPa 5.0 m/s 0.0 mm 9.3° 1001.8 hPa 4.8 m/s 9.3° 1001.7 hPa 7.5 m/s
06:00 8.4° 1003.8 hPa 5.0 m/s 0.0 mm 8.6° 1001.5 hPa 5.2 m/s 143.4 mm 8.2° 1005.6 hPa 4.8 m/s 0.0 mm 7.9° 1004.2 hPa 3.6 m/s 8.8° 1003.4 hPa 7.3 m/s
09:00 8.9° 1006.8 hPa 3.6 m/s 0.0 mm 9.5° 1005.2 hPa 5.3 m/s 143.4 mm 7.8° 1008.7 hPa 2.5 m/s 0.0 mm 9.1° 1006.7 hPa 3.5 m/s 9.1° 1006.8 hPa 6.3 m/s
12:00 10.7° 1009.1 hPa 4.2 m/s 0.0 mm 12.1° 1007.1 hPa 6.9 m/s 143.4 mm 10.9° 1010.2 hPa 4.3 m/s 0.0 mm 10.3° 1009.2 hPa 3.5 m/s 11.6° 1008.7 hPa 7.5 m/s
15:00 9.5° 1010.6 hPa 3.2 m/s 143.4 mm 12.5° 1008.1 hPa 5.7 m/s 143.4 mm 9.1° 1011.0 hPa 2.8 m/s 11.4° 1009.6 hPa 6.5 m/s
18:00 8.1° 1012.5 hPa 2.1 m/s 143.4 mm 10.0° 1010.1 hPa 2.4 m/s 143.4 mm 7.8° 1012.9 hPa 2.0 m/s 8.9° 1011.9 hPa 3.3 m/s
21:00 6.9° 1013.9 hPa 2.8 m/s 51.1 mm 6.8° 1013.9 hPa 3.0 m/s 7.9° 1014.0 hPa 1.0 m/s 51.1 mm
 07:54     17:09    Daglengte: 9:15 Woensdag 18 Dec
00:00 6.3° 1014.4 hPa 3.5 m/s 51.1 mm 6.3° 1014.4 hPa 3.5 m/s 6.6° 1014.3 hPa 3.6 m/s 51.1 mm
03:00 7.6° 1013.1 hPa 4.9 m/s 51.1 mm 7.7° 1013.1 hPa 4.9 m/s 7.5° 1013.3 hPa 4.9 m/s 51.1 mm
06:00 9.0° 1011.8 hPa 6.3 m/s 51.1 mm 9.0° 1011.8 hPa 6.3 m/s 9.0° 1011.8 hPa 5.7 m/s 51.1 mm
09:00 10.2° 1010.8 hPa 7.7 m/s 51.7 mm 10.2° 1010.8 hPa 7.8 m/s 9.5° 1010.7 hPa 6.9 m/s 51.7 mm
12:00 11.5° 1009.9 hPa 9.2 m/s 51.9 mm 11.5° 1009.9 hPa 9.2 m/s 12.0° 1009.6 hPa 9.0 m/s 51.9 mm
15:00 12.5° 1007.4 hPa 8.9 m/s 56.0 mm 12.5° 1007.6 hPa 8.9 m/s 12.8° 1005.7 hPa 8.3 m/s 56.0 mm
18:00 13.6° 1005.2 hPa 8.8 m/s 74.1 mm 13.5° 1005.3 hPa 8.7 m/s 14.5° 1004.0 hPa 10.2 m/s 74.1 mm
21:00 13.7° 1005.0 hPa 8.0 m/s 77.6 mm 13.7° 1005.0 hPa 8.1 m/s 13.9° 1004.6 hPa 6.8 m/s 77.6 mm
 07:55     17:09    Daglengte: 9:14 Donderdag 19 Dec
00:00 13.6° 1004.7 hPa 7.7 m/s 80.8 mm 13.8° 1004.7 hPa 7.6 m/s 11.9° 1004.6 hPa 9.2 m/s 80.8 mm
03:00 13.1° 1003.4 hPa 8.0 m/s 82.9 mm 13.2° 1003.2 hPa 8.1 m/s 12.0° 1004.8 hPa 6.9 m/s 82.9 mm
06:00 12.5° 1002.0 hPa 8.5 m/s 85.9 mm 12.6° 1001.8 hPa 8.6 m/s 11.8° 1004.1 hPa 6.9 m/s 85.9 mm
09:00 12.5° 1001.3 hPa 8.0 m/s 88.8 mm 12.6° 1000.9 hPa 8.0 m/s 11.9° 1005.8 hPa 7.4 m/s 88.8 mm
12:00 12.6° 1000.5 hPa 7.2 m/s 90.6 mm 12.5° 1000.0 hPa 7.4 m/s 13.4° 1006.6 hPa 5.4 m/s 90.6 mm
15:00 12.0° 1002.1 hPa 6.5 m/s 91.4 mm 11.9° 1002.0 hPa 6.6 m/s 12.7° 1003.2 hPa 5.4 m/s 91.4 mm
18:00 11.4° 1003.3 hPa 5.9 m/s 102.1 mm 11.4° 1003.9 hPa 5.7 m/s 11.0° 996.3 hPa 7.7 m/s 102.1 mm
21:00 11.8° 1003.6 hPa 5.4 m/s 108.7 mm 11.6° 1004.6 hPa 5.3 m/s 14.2° 992.1 hPa 6.5 m/s 108.7 mm
 07:55     17:10    Daglengte: 9:15 Vrijdag 20 Dec
00:00 11.9° 1004.3 hPa 5.1 m/s 110.6 mm 11.7° 1005.3 hPa 4.9 m/s 14.1° 993.0 hPa 6.8 m/s 110.6 mm
03:00 12.3° 1003.6 hPa 5.2 m/s 112.3 mm 12.2° 1004.3 hPa 4.9 m/s 13.5° 995.6 hPa 8.1 m/s 112.3 mm
06:00 12.7° 1003.0 hPa 5.2 m/s 113.0 mm 12.7° 1003.3 hPa 4.9 m/s 12.9° 999.5 hPa 9.0 m/s 113.0 mm
09:00 13.7° 1001.6 hPa 6.5 m/s 113.8 mm 13.8° 1001.3 hPa 6.5 m/s 12.4° 1004.8 hPa 6.2 m/s 113.8 mm
12:00 14.8° 1000.0 hPa 8.1 m/s 114.4 mm 14.9° 999.3 hPa 8.2 m/s 13.6° 1008.0 hPa 7.0 m/s 114.4 mm
15:00 14.7° 1002.4 hPa 8.3 m/s 114.6 mm 14.9° 1001.8 hPa 8.6 m/s 13.6° 1008.9 hPa 5.0 m/s 114.6 mm
18:00 14.5° 1004.8 hPa 8.4 m/s 114.8 mm 14.8° 1004.3 hPa 8.9 m/s 11.8° 1010.9 hPa 3.5 m/s 114.8 mm
21:00 13.8° 1007.8 hPa 6.2 m/s 116.1 mm 14.1° 1007.4 hPa 6.6 m/s 11.6° 1012.3 hPa 2.4 m/s 116.1 mm
 07:56     17:10    Daglengte: 9:14 Zaterdag 21 Dec
00:00 13.2° 1010.6 hPa 4.3 m/s 118.1 mm 13.3° 1010.5 hPa 4.2 m/s 12.1° 1012.3 hPa 5.4 m/s 118.1 mm
03:00 12.9° 1012.2 hPa 3.4 m/s 119.0 mm 12.7° 1012.1 hPa 3.2 m/s 14.9° 1012.8 hPa 5.2 m/s 119.0 mm
06:00 12.4° 1013.7 hPa 2.6 m/s 119.9 mm 12.1° 1013.7 hPa 2.2 m/s 15.2° 1013.6 hPa 6.6 m/s 119.9 mm
09:00 13.3° 1015.5 hPa 2.2 m/s 120.0 mm 13.1° 1015.5 hPa 2.0 m/s 15.2° 1016.0 hPa 4.6 m/s 120.0 mm
12:00 14.3° 1017.2 hPa 2.0 m/s 120.2 mm 14.2° 1017.2 hPa 1.8 m/s 15.4° 1017.8 hPa 4.2 m/s 120.2 mm
18:00 13.3° 1018.5 hPa 2.0 m/s 120.3 mm 13.1° 1018.4 hPa 1.8 m/s 15.0° 1019.9 hPa 3.9 m/s 120.3 mm
 07:56     17:11    Daglengte: 9:15 Zondag 22 Dec
00:00 11.5° 1020.8 hPa 3.4 m/s 120.6 mm 11.2° 1020.6 hPa 3.4 m/s 14.7° 1023.1 hPa 3.8 m/s 120.6 mm
06:00 14.0° 1022.0 hPa 3.0 m/s 121.0 mm 13.9° 1021.9 hPa 3.0 m/s 14.5° 1023.6 hPa 2.7 m/s 121.0 mm
12:00 15.7° 1025.1 hPa 3.9 m/s 121.3 mm 15.7° 1025.1 hPa 4.0 m/s 15.8° 1025.2 hPa 2.8 m/s 121.3 mm
18:00 13.9° 1026.1 hPa 2.2 m/s 121.4 mm 13.8° 1026.4 hPa 2.3 m/s 14.6° 1022.4 hPa 1.5 m/s 121.4 mm
 07:57     17:11    Daglengte: 9:14 Maandag 23 Dec
00:00 13.4° 1027.5 hPa 3.1 m/s 121.4 mm 13.5° 1028.0 hPa 3.1 m/s 11.8° 1022.0 hPa 2.6 m/s 121.4 mm
06:00 10.6° 1026.7 hPa 2.6 m/s 121.4 mm 10.5° 1027.5 hPa 2.5 m/s 11.4° 1018.2 hPa 4.2 m/s 121.4 mm
12:00 15.0° 1026.4 hPa 4.4 m/s 121.4 mm 14.8° 1027.3 hPa 4.3 m/s 16.7° 1016.0 hPa 5.6 m/s 121.4 mm
18:00 13.3° 1022.8 hPa 2.5 m/s 121.4 mm 13.1° 1023.9 hPa 2.2 m/s 15.9° 1011.0 hPa 6.1 m/s 121.4 mm
 07:57     17:12    Daglengte: 9:15 Dinsdag 24 Dec
00:00 15.0° 1008.4 hPa 7.3 m/s 121.4 mm 15.0° 1008.4 hPa 7.3 m/s 121.4 mm
06:00 14.7° 1004.9 hPa 9.2 m/s 123.3 mm 14.7° 1004.9 hPa 9.2 m/s 123.3 mm
12:00 13.0° 1016.9 hPa 2.6 m/s 1.4 mm
18:00 11.6° 1015.8 hPa 1.4 m/s 1.3 mm
 07:58     17:12    Daglengte: 9:14 Woensdag 25 Dec
00:00 11.0° 1016.7 hPa 1.3 m/s 1.4 mm
06:00 10.5° 1016.3 hPa 1.7 m/s 0.5 mm
12:00 12.9° 1017.4 hPa 2.2 m/s 2.0 mm
18:00 11.5° 1016.7 hPa 2.1 m/s 1.5 mm
 07:58     17:13    Daglengte: 9:15 Donderdag 26 Dec
00:00 10.6° 1017.5 hPa 2.4 m/s 2.0 mm
06:00 10.4° 1017.1 hPa 1.6 m/s 1.4 mm
12:00 13.0° 1018.6 hPa 2.1 m/s 0.8 mm
18:00 11.6° 1017.7 hPa 1.2 m/s 0.7 mm
 07:58     17:14    Daglengte: 9:16 Vrijdag 27 Dec
00:00 10.9° 1018.5 hPa 1.8 m/s 0.9 mm
06:00 10.5° 1017.6 hPa 2.1 m/s 1.1 mm
12:00 13.2° 1018.0 hPa 2.4 m/s 0.9 mm
18:00 11.6° 1016.6 hPa 1.7 m/s 0.7 mm
 07:59     17:14    Daglengte: 9:15 Zaterdag 28 Dec
00:00 10.9° 1017.2 hPa 2.1 m/s 2.0 mm
06:00 10.1° 1016.7 hPa 1.7 m/s 0.9 mm
12:00 13.1° 1017.8 hPa 2.2 m/s 0.3 mm
18:00 11.3° 1017.2 hPa 1.7 m/s 1.5 mm
 07:59     17:15    Daglengte: 9:16 Zondag 29 Dec
00:00 10.6° 1018.1 hPa 1.6 m/s 1.5 mm
06:00 10.0° 1017.6 hPa 1.9 m/s 0.8 mm
12:00 12.8° 1019.1 hPa 1.6 m/s 1.6 mm
FMI Hirlam - 7.5 km EWN WRFDA - 12 km DWD ICON - 7 km GFS - 25 km Basiskaart






























































Updatetijd (Europe/Amsterdam) Resolutie Lengte Stap
FMI Hirlam 12:15, 18:15, 00:15, 06:15 7.5 km 49h 1h
EWN WRFDA 14:30, 20:30, 02:30, 08:30 12 km 73h 1h
DWD ICON 10:45, 16:45, 22:45, 04:45 7 km 75h 1h
GFS 13:30, 19:30, 01:30, 07:30 25 km 237h 3h
30+ mm
25-30 mm
20-25 mm
15-20 mm
10-15 mm
6-10 mm
4-6 mm
2-4 mm
1-2 mm
0.5-1 mm
0.2-0.5 mm
0.1-0.2 mm
30+ mm
25-30 mm
20-25 mm
15-20 mm
10-15 mm
6-10 mm
4-6 mm
2-4 mm
1-2 mm
0.5-1 mm
0.2-0.5 mm
0.1-0.2 mm
Sneeuwval
Natte sneeuw
Hagel
Vorst
30+ mm
25-30 mm
20-25 mm
15-20 mm
10-15 mm
6-10 mm
4-6 mm
2-4 mm
1-2 mm
0.5-1 mm
0.2-0.5 mm
0.1-0.2 mm
Sneeuwval
Natte sneeuw
Hagel
Vorst
Onweer
50 mm
40 mm
30 mm
26 mm
22 mm
18 mm
14 mm
10 mm
9 mm
8 mm
7 mm
6 mm
5 mm
4.5 mm
4 mm
3.5 mm
3 mm
2.5 mm
2 mm
1.5 mm
1 mm
0.8 mm
0.6 mm
0.4 mm
0.2 mm
0.05 mm
35°
30°
25°
20°
15°
10°
-5°
-10°
-15°
-20°
-25°
-30°
-35°
33> m/s
29 m/s
25 m/s
21 m/s
17 m/s
14 m/s
11 m/s
8 m/s
5 m/s
3 m/s
0 m/s
2600 J/kg
2400 J/kg
2200 J/kg
2000 J/kg
1800 J/kg
1600 J/kg
1400 J/kg
1200 J/kg
1000 J/kg
800 J/kg
600 J/kg
400 J/kg
200 J/kg
70 dBZ
65 dBZ
60 dBZ
55 dBZ
50 dBZ
45 dBZ
40 dBZ
35 dBZ
30 dBZ
25 dBZ
20 dBZ
15 dBZ
10 dBZ
5 dBZ
-1 K
-2 K
-3 K
-4 K
-5 K
-6 K
-7 K
-8 K
-9 K
950 m²/s²
900 m²/s²
850 m²/s²
800 m²/s²
750 m²/s²
700 m²/s²
650 m²/s²
600 m²/s²
550 m²/s²
500 m²/s²
450 m²/s²
400 m²/s²
350 m²/s²
300 m²/s²
250 m²/s²
200 m²/s²
150 m²/s²
100 m²/s²
46 m/s
44 m/s
42 m/s
40 m/s
38 m/s
36 m/s
34 m/s
32 m/s
30 m/s
28 m/s
26 m/s
24 m/s
22 m/s
20 m/s
16 m/s
12 m/s
8 m/s
4 m/s
30 m/s
28 m/s
26 m/s
24 m/s
22 m/s
20 m/s
18 m/s
16 m/s
14 m/s
12 m/s
10 m/s
8 m/s
6 m/s
4 m/s
2 m/s
3.0
2.8
2.6
2.4
2.2
2.0
1.8
1.6
1.4
1.2
1.0
0.8
0.6
0.4
0.2
15
14
13
12
11
10
9
8
7
6
5
4
3
2
1
90%
80%
70%
60%
50%
40%
30%
20%
10%
42
40
38
36
34
32
30
28
26
24
22
20
18
16
14
12
90+ cm
80-90 cm
70-80 cm
60-70 cm
50-60 cm
40-50 cm
30-40 cm
20-30 cm
10-20 cm
1-10 cm
Sneeuwval
Natte sneeuw
Regen
>120 mm
115 mm
110 mm
105 mm
100 mm
95 mm
90 mm
85 mm
80 mm
75 mm
70 mm
65 mm
60 mm
55 mm
50 mm
45 mm
45 mm
40 mm
35 mm
30 mm
25 mm
20 mm
15 mm
10 mm
5 mm
0.1 mm
960 hPa
880 hPa
800 hPa
720 hPa
640 hPa
560 hPa
584 gpdm
568 gpdm
552 gpdm
536 gpdm
520 gpdm
504 gpdm
488 gpdm
Extreem zwaar Noodweer Kans op onweer
15% 15% 5% 50% 15%

Dag




Kaart






35°
30°
25°
20°
15°
10°
-5°
-10°
-15°
-20°
-25°
-30°
-35°
33> m/s
29 m/s
25 m/s
21 m/s
17 m/s
14 m/s
11 m/s
8 m/s
5 m/s
3 m/s
0 m/s
Extreem zwaar Noodweer Kans op onweer
15% 15% 5% 50% 15%
>120 mm
115 mm
110 mm
105 mm
100 mm
95 mm
90 mm
85 mm
80 mm
75 mm
70 mm
65 mm
60 mm
55 mm
50 mm
45 mm
45 mm
40 mm
35 mm
30 mm
25 mm
20 mm
15 mm
10 mm
5 mm
0.1 mm
Onweer risico kaarten - De groene en gele kleur geeft de kans op onweer aan binnen 40 km van een punt. Oranje, rood en violet hebben hetzelfde niveau zoals je het ziet op estofex.org waaronder ook de kans op hagel en supercells.

dBZ - dBZ staat voor decibel ten opzichte van Z.

Cape - Convective available potential energy (CAPE), is de totale hoeveelheid energie die een luchtpakketje nodig heeft om zover mogelijk te stijgen in de atmosfeer.

K Index - K-Index wordt berekend door de Vertical Totals (VT) en het verschil tussen de 850 hPa temperatuur en de 700 hPa dauwpuntsdepressie (Tdd 700) bij elkaar op t